WZZ4D EDLW-LHBP

Flight info

Callsign WZZ4D
Flight time 1h 23m
Altitude 37000
Route GMH8Q/06 GMH Q603 TESGA DCT ESATI DCT BOREP DCT ENITA DCT PEPIK DCT NIT/N0379F230 M748 ARFOX
Aircraft A321/M-SDE1E2E3FGIJ1J4RWXY/LB1G1

Departure

Time 2026-05-06 15:08
Airport Dortmund Airport (EDLW)

Arrival

Time 2026-05-06 16:31
Airport Budapest Liszt Ferenc International Airport (LHBP)
Time Latitude Longitude Altitude Speed Heading
2026-05-06 14:21 51.51683 7.61580 434 ft 0 kts 331°
2026-05-06 15:03 51.51701 7.61564 421 ft 5 kts 332°
2026-05-06 15:03 51.51717 7.61551 431 ft 0 kts 332°
2026-05-06 15:03 51.51717 7.61550 431 ft 1 kts 332°
2026-05-06 15:04 51.51735 7.61510 432 ft 8 kts 279°
2026-05-06 15:04 51.51711 7.61420 424 ft 9 kts 243°
2026-05-06 15:04 51.51679 7.61318 422 ft 11 kts 244°
2026-05-06 15:04 51.51646 7.61202 424 ft 12 kts 246°
2026-05-06 15:05 51.51602 7.61073 421 ft 14 kts 232°
2026-05-06 15:05 51.51550 7.60937 424 ft 15 kts 242°
2026-05-06 15:05 51.51488 7.60754 419 ft 21 kts 239°
2026-05-06 15:05 51.51435 7.60607 411 ft 14 kts 240°
2026-05-06 15:06 51.51385 7.60462 416 ft 16 kts 240°
2026-05-06 15:06 51.51382 7.60292 413 ft 18 kts 315°
2026-05-06 15:06 51.51487 7.60268 413 ft 18 kts 32°
2026-05-06 15:06 51.51556 7.60437 414 ft 19 kts 60°
2026-05-06 15:07 51.51575 7.60491 413 ft 0 kts 60°
2026-05-06 15:07 51.51576 7.60494 410 ft 2 kts 60°
2026-05-06 15:07 51.51659 7.60727 412 ft 61 kts 60°
2026-05-06 15:08 51.51999 7.61692 414 ft 135 kts 60°
2026-05-06 15:08 51.52545 7.63233 685 ft 169 kts 58°
2026-05-06 15:08 51.53100 7.64868 1681 ft 165 kts 58°
2026-05-06 15:08 51.53684 7.66537 2395 ft 181 kts 58°
2026-05-06 15:09 51.54348 7.68399 2938 ft 203 kts 58°
2026-05-06 15:09 51.55088 7.70466 3299 ft 224 kts 58°
2026-05-06 15:09 51.55888 7.72773 3615 ft 249 kts 64°
2026-05-06 15:09 51.56108 7.75593 4132 ft 266 kts 101°
2026-05-06 15:10 51.55228 7.78218 4827 ft 273 kts 137°
2026-05-06 15:10 51.53572 7.79616 5598 ft 272 kts 173°
2026-05-06 15:10 51.51712 7.79402 6442 ft 269 kts 197°
2026-05-06 15:10 51.49943 7.78432 7292 ft 268 kts 204°
2026-05-06 15:11 51.48232 7.77227 8146 ft 270 kts 204°
2026-05-06 15:11 51.46477 7.76151 8972 ft 271 kts 201°
2026-05-06 15:11 51.44675 7.75301 9756 ft 274 kts 191°
2026-05-06 15:11 51.42755 7.75186 10444 ft 281 kts 178°
2026-05-06 15:12 51.40751 7.75847 10662 ft 307 kts 164°
2026-05-06 15:12 51.38661 7.77046 10873 ft 327 kts 163°
2026-05-06 15:12 51.36494 7.78284 11456 ft 334 kts 163°
2026-05-06 15:12 51.34295 7.79535 12138 ft 338 kts 163°
2026-05-06 15:13 51.32060 7.80802 12804 ft 342 kts 163°
2026-05-06 15:13 51.29796 7.82079 13439 ft 347 kts 163°
2026-05-06 15:13 51.27508 7.83359 14026 ft 351 kts 164°
2026-05-06 15:13 51.25190 7.84652 14644 ft 354 kts 164°
2026-05-06 15:14 51.22854 7.85953 15311 ft 357 kts 163°
2026-05-06 15:14 51.20502 7.87262 15950 ft 360 kts 163°
2026-05-06 15:14 51.18128 7.88598 16626 ft 363 kts 162°
2026-05-06 15:14 51.15846 7.90400 17237 ft 370 kts 151°
2026-05-06 15:15 51.13669 7.92631 17885 ft 374 kts 150°
2026-05-06 15:15 51.11474 7.94885 18459 ft 377 kts 150°
2026-05-06 15:15 51.09263 7.97145 18982 ft 379 kts 150°
2026-05-06 15:15 51.07032 7.99416 19535 ft 382 kts 150°
2026-05-06 15:16 51.04783 8.01697 20054 ft 385 kts 150°
2026-05-06 15:16 51.02515 8.03997 20590 ft 388 kts 150°
2026-05-06 15:16 51.00227 8.06315 21096 ft 391 kts 151°
2026-05-06 15:16 50.97920 8.08645 21605 ft 395 kts 151°
2026-05-06 15:17 50.95588 8.10996 22126 ft 398 kts 151°
2026-05-06 15:17 50.93238 8.13362 22636 ft 402 kts 152°
2026-05-06 15:17 50.90871 8.15742 23145 ft 405 kts 152°
2026-05-06 15:17 50.88482 8.18145 23597 ft 408 kts 152°
2026-05-06 15:18 50.86106 8.20533 24022 ft 411 kts 152°
2026-05-06 15:18 50.83659 8.22993 24473 ft 412 kts 152°
2026-05-06 15:18 50.81235 8.25429 24901 ft 414 kts 152°
2026-05-06 15:18 50.78828 8.27840 25328 ft 415 kts 152°
2026-05-06 15:19 50.76352 8.30314 25774 ft 417 kts 152°
2026-05-06 15:19 50.73897 8.32764 26198 ft 418 kts 152°
2026-05-06 15:19 50.71469 8.35187 26607 ft 420 kts 152°
2026-05-06 15:19 50.68959 8.37683 27026 ft 421 kts 152°
2026-05-06 15:20 50.66517 8.40108 27421 ft 423 kts 152°
2026-05-06 15:20 50.64017 8.42592 27824 ft 424 kts 151°
2026-05-06 15:20 50.61518 8.45080 28271 ft 425 kts 151°
2026-05-06 15:20 50.59022 8.47563 28679 ft 426 kts 151°
2026-05-06 15:21 50.56505 8.50059 29059 ft 427 kts 151°
2026-05-06 15:21 50.53989 8.52544 29469 ft 428 kts 151°
2026-05-06 15:21 50.51458 8.55037 29857 ft 429 kts 151°
2026-05-06 15:21 50.48926 8.57527 30156 ft 431 kts 151°
2026-05-06 15:22 50.46377 8.60033 30443 ft 433 kts 150°
2026-05-06 15:22 50.43929 8.62805 30732 ft 439 kts 142°
2026-05-06 15:22 50.41692 8.66100 31008 ft 443 kts 139°
2026-05-06 15:22 50.39480 8.69451 31391 ft 442 kts 139°
2026-05-06 15:23 50.37269 8.72795 31773 ft 441 kts 139°
2026-05-06 15:23 50.35050 8.76146 32153 ft 441 kts 140°
2026-05-06 15:23 50.32838 8.79477 32519 ft 441 kts 140°
2026-05-06 15:23 50.30629 8.82794 32872 ft 441 kts 140°
2026-05-06 15:24 50.28413 8.86114 33230 ft 441 kts 140°
2026-05-06 15:24 50.26196 8.89427 33572 ft 441 kts 140°
2026-05-06 15:24 50.23978 8.92733 33899 ft 441 kts 140°
2026-05-06 15:24 50.21767 8.96030 34181 ft 441 kts 140°
2026-05-06 15:25 50.19549 8.99339 34453 ft 441 kts 140°
2026-05-06 15:25 50.17329 9.02646 34732 ft 441 kts 140°
2026-05-06 15:25 50.15117 9.05934 35004 ft 440 kts 140°
2026-05-06 15:25 50.12895 9.09235 35272 ft 440 kts 140°
2026-05-06 15:26 50.10688 9.12529 35540 ft 441 kts 138°
2026-05-06 15:26 50.08708 9.16213 35799 ft 446 kts 128°
2026-05-06 15:26 50.07164 9.20424 35992 ft 452 kts 117°
2026-05-06 15:26 50.06122 9.25083 36203 ft 458 kts 107°
2026-05-06 15:27 50.05626 9.29994 36416 ft 462 kts 98°
2026-05-06 15:27 50.05328 9.34985 36627 ft 463 kts 98°
2026-05-06 15:27 50.05017 9.39976 36768 ft 463 kts 99°
2026-05-06 15:28 50.04378 9.49928 36777 ft 462 kts 99°
2026-05-06 15:28 50.03725 9.59868 36775 ft 462 kts 99°
2026-05-06 15:29 50.03068 9.69835 36774 ft 465 kts 99°
2026-05-06 15:29 50.02416 9.79834 36769 ft 465 kts 99°
2026-05-06 15:30 50.01753 9.89857 36766 ft 465 kts 99°
2026-05-06 15:30 50.01075 9.99862 36772 ft 466 kts 99°
2026-05-06 15:31 50.00383 10.09877 36754 ft 466 kts 99°
2026-05-06 15:31 49.99687 10.19828 36754 ft 467 kts 99°
2026-05-06 15:32 49.98617 10.34905 36767 ft 468 kts 100°
2026-05-06 15:32 49.97892 10.44956 36774 ft 468 kts 100°
2026-05-06 15:33 49.97160 10.55008 36744 ft 469 kts 100°
2026-05-06 15:33 49.96285 10.65033 36754 ft 467 kts 106°
2026-05-06 15:34 49.95165 10.73245 36764 ft 468 kts 106°
2026-05-06 15:34 49.93833 10.83135 36777 ft 469 kts 106°
2026-05-06 15:35 49.92482 10.93050 36784 ft 469 kts 106°
2026-05-06 15:35 49.91124 11.02940 36774 ft 470 kts 106°
2026-05-06 15:36 49.89757 11.12849 36774 ft 470 kts 106°
2026-05-06 15:36 49.88374 11.22765 36779 ft 470 kts 107°
2026-05-06 15:37 49.86979 11.32675 36784 ft 470 kts 107°
2026-05-06 15:37 49.85584 11.42573 36760 ft 470 kts 107°
2026-05-06 15:38 49.84183 11.52467 36775 ft 470 kts 107°
2026-05-06 15:38 49.82769 11.62344 36786 ft 470 kts 108°
2026-05-06 15:39 49.81342 11.72224 36778 ft 470 kts 108°
2026-05-06 15:39 49.79917 11.82086 36775 ft 469 kts 108°
2026-05-06 15:40 49.78492 11.91855 36757 ft 469 kts 108°
2026-05-06 15:40 49.77048 12.01690 36765 ft 469 kts 108°
2026-05-06 15:41 49.75593 12.11510 36770 ft 469 kts 108°
2026-05-06 15:41 49.74132 12.21330 36773 ft 469 kts 108°
2026-05-06 15:42 49.72660 12.31156 36743 ft 469 kts 108°
2026-05-06 15:42 49.71186 12.40967 36755 ft 469 kts 108°
2026-05-06 15:43 49.69665 12.50766 36762 ft 468 kts 109°
2026-05-06 15:43 49.67972 12.60467 36767 ft 467 kts 111°
2026-05-06 15:44 49.66200 12.70101 36743 ft 467 kts 111°
2026-05-06 15:44 49.64441 12.79754 36758 ft 468 kts 111°
2026-05-06 15:45 49.62711 12.89437 36760 ft 468 kts 111°
2026-05-06 15:45 49.60978 12.99095 36764 ft 468 kts 111°
2026-05-06 15:46 49.59223 13.08750 36770 ft 468 kts 111°
2026-05-06 15:46 49.57452 13.18397 36793 ft 467 kts 111°
2026-05-06 15:47 49.55678 13.28035 36793 ft 468 kts 111°
2026-05-06 15:47 49.53902 13.37647 36790 ft 467 kts 111°
2026-05-06 15:48 49.52114 13.47273 36786 ft 467 kts 111°
2026-05-06 15:48 49.50325 13.56814 36760 ft 467 kts 111°
2026-05-06 15:49 49.48525 13.66400 36772 ft 466 kts 111°
2026-05-06 15:49 49.46724 13.75971 36773 ft 466 kts 111°
2026-05-06 15:50 49.44920 13.85522 36770 ft 465 kts 112°
2026-05-06 15:50 49.43095 13.95064 36766 ft 465 kts 112°
2026-05-06 15:51 49.41271 14.04581 36758 ft 465 kts 112°
2026-05-06 15:51 49.39439 14.14115 36752 ft 465 kts 112°
2026-05-06 15:52 49.37599 14.23629 36749 ft 465 kts 112°
2026-05-06 15:52 49.35749 14.33145 36755 ft 465 kts 112°
2026-05-06 15:53 49.33893 14.42655 36730 ft 465 kts 113°
2026-05-06 15:53 49.32024 14.52158 36726 ft 466 kts 113°
2026-05-06 15:54 49.30142 14.61665 36735 ft 467 kts 113°
2026-05-06 15:54 49.28255 14.71185 36730 ft 467 kts 113°
2026-05-06 15:55 49.26356 14.80699 36697 ft 467 kts 113°
2026-05-06 15:55 49.24446 14.90215 36710 ft 468 kts 113°
2026-05-06 15:56 49.22535 14.99679 36720 ft 469 kts 113°
2026-05-06 15:56 49.20602 15.09213 36728 ft 470 kts 113°
2026-05-06 15:57 49.18672 15.18761 36724 ft 470 kts 113°
2026-05-06 15:57 49.16729 15.28309 36708 ft 471 kts 113°
2026-05-06 15:58 49.14764 15.37881 36720 ft 472 kts 113°
2026-05-06 15:58 49.12797 15.47428 36741 ft 472 kts 113°
2026-05-06 15:59 49.10821 15.56995 36745 ft 472 kts 113°
2026-05-06 15:59 49.08824 15.66542 36729 ft 472 kts 113°
2026-05-06 16:00 49.06830 15.76080 36732 ft 472 kts 113°
2026-05-06 16:00 49.04831 15.85614 36739 ft 472 kts 113°
2026-05-06 16:01 49.02818 15.95155 36775 ft 472 kts 113°
2026-05-06 16:01 49.00797 16.04666 36752 ft 472 kts 113°
2026-05-06 16:02 48.98766 16.14177 36756 ft 473 kts 113°
2026-05-06 16:02 48.96727 16.23702 36760 ft 473 kts 113°
2026-05-06 16:03 48.94686 16.33206 36762 ft 473 kts 113°
2026-05-06 16:03 48.92630 16.42716 36765 ft 473 kts 113°
2026-05-06 16:04 48.90557 16.52214 36760 ft 473 kts 113°
2026-05-06 16:04 48.88486 16.61710 36765 ft 474 kts 113°
2026-05-06 16:05 48.87450 16.66464 36595 ft 475 kts 113°
2026-05-06 16:05 48.86414 16.71219 36339 ft 474 kts 113°
2026-05-06 16:05 48.85372 16.75970 36073 ft 475 kts 114°
2026-05-06 16:05 48.84322 16.80721 35772 ft 474 kts 114°
2026-05-06 16:06 48.83271 16.85465 35223 ft 474 kts 114°
2026-05-06 16:06 48.82223 16.90198 34732 ft 471 kts 114°
2026-05-06 16:06 48.81179 16.94909 34212 ft 471 kts 114°
2026-05-06 16:06 48.80134 16.99608 33696 ft 470 kts 114°
2026-05-06 16:07 48.79081 17.04254 33150 ft 466 kts 117°
2026-05-06 16:07 48.77711 17.08643 32668 ft 455 kts 126°
2026-05-06 16:07 48.75961 17.12592 32195 ft 445 kts 134°
2026-05-06 16:07 48.74099 17.16309 31736 ft 441 kts 133°
2026-05-06 16:08 48.72260 17.19989 31275 ft 437 kts 133°
2026-05-06 16:08 48.70431 17.23648 30821 ft 433 kts 133°
2026-05-06 16:08 48.68621 17.27263 30366 ft 430 kts 133°
2026-05-06 16:08 48.66821 17.30850 29939 ft 426 kts 133°
2026-05-06 16:09 48.65040 17.34392 29454 ft 422 kts 133°
2026-05-06 16:09 48.63274 17.37906 29040 ft 416 kts 133°
2026-05-06 16:09 48.61553 17.41326 28616 ft 411 kts 133°
2026-05-06 16:09 48.59809 17.44786 28208 ft 406 kts 133°
2026-05-06 16:10 48.58132 17.48114 27806 ft 401 kts 133°
2026-05-06 16:10 48.56446 17.51451 27418 ft 397 kts 133°
2026-05-06 16:10 48.54771 17.54680 27267 ft 387 kts 134°
2026-05-06 16:10 48.53060 17.57862 26902 ft 383 kts 135°
2026-05-06 16:11 48.51359 17.60948 26520 ft 381 kts 135°
2026-05-06 16:11 48.49662 17.63992 26139 ft 379 kts 135°
2026-05-06 16:11 48.47966 17.67031 25755 ft 377 kts 135°
2026-05-06 16:11 48.46287 17.70055 25367 ft 376 kts 135°
2026-05-06 16:12 48.44648 17.73019 24988 ft 375 kts 135°
2026-05-06 16:12 48.42954 17.76091 24564 ft 373 kts 135°
2026-05-06 16:12 48.41302 17.79089 24161 ft 371 kts 135°
2026-05-06 16:12 48.39659 17.82073 23753 ft 370 kts 135°
2026-05-06 16:13 48.38043 17.85004 23331 ft 369 kts 135°
2026-05-06 16:13 48.36386 17.88002 22867 ft 366 kts 135°
2026-05-06 16:13 48.34783 17.90896 22418 ft 363 kts 134°
2026-05-06 16:13 48.33179 17.93794 22017 ft 360 kts 135°
2026-05-06 16:14 48.31567 17.96698 21524 ft 363 kts 134°
2026-05-06 16:14 48.29948 17.99608 21003 ft 363 kts 134°
2026-05-06 16:14 48.28322 18.02526 20392 ft 366 kts 134°
2026-05-06 16:14 48.26678 18.05470 19770 ft 369 kts 134°
2026-05-06 16:15 48.25021 18.08436 19162 ft 372 kts 134°
2026-05-06 16:15 48.23356 18.11414 18577 ft 373 kts 134°
2026-05-06 16:15 48.21686 18.14400 17970 ft 375 kts 134°
2026-05-06 16:15 48.20005 18.17403 17304 ft 376 kts 134°
2026-05-06 16:16 48.18337 18.20385 16667 ft 376 kts 134°
2026-05-06 16:16 48.16648 18.23397 16009 ft 376 kts 135°
2026-05-06 16:16 48.14729 18.26008 15379 ft 371 kts 145°
2026-05-06 16:16 48.12722 18.28424 14762 ft 370 kts 145°
2026-05-06 16:17 48.10719 18.30843 14165 ft 370 kts 145°
2026-05-06 16:17 48.08750 18.33228 13553 ft 355 kts 144°
2026-05-06 16:17 48.06887 18.35488 12902 ft 336 kts 145°
2026-05-06 16:17 48.05117 18.37633 12398 ft 319 kts 145°
2026-05-06 16:18 48.03408 18.39697 12134 ft 312 kts 145°
2026-05-06 16:18 48.01735 18.41702 11876 ft 307 kts 146°
2026-05-06 16:18 48.00069 18.43690 11616 ft 305 kts 146°
2026-05-06 16:18 47.98417 18.45656 11377 ft 304 kts 146°
2026-05-06 16:19 47.96767 18.47620 11136 ft 302 kts 146°
2026-05-06 16:19 47.95125 18.49579 10889 ft 301 kts 146°
2026-05-06 16:19 47.93493 18.51529 10645 ft 300 kts 146°
2026-05-06 16:19 47.91870 18.53472 10392 ft 299 kts 145°
2026-05-06 16:20 47.90249 18.55409 10146 ft 298 kts 146°
2026-05-06 16:20 47.89183 18.56682 9992 ft 297 kts 146°
2026-05-06 16:20 47.87070 18.59202 9428 ft 288 kts 146°
2026-05-06 16:20 47.85522 18.61043 8911 ft 282 kts 146°
2026-05-06 16:21 47.84003 18.62848 8393 ft 280 kts 146°
2026-05-06 16:21 47.82482 18.64652 7911 ft 278 kts 145°
2026-05-06 16:21 47.80973 18.66442 7780 ft 279 kts 146°
2026-05-06 16:21 47.79464 18.68230 7653 ft 277 kts 146°
2026-05-06 16:22 47.78444 18.69436 7577 ft 277 kts 146°
2026-05-06 16:22 47.76944 18.71210 7446 ft 276 kts 146°
2026-05-06 16:22 47.74950 18.73571 7281 ft 276 kts 146°
2026-05-06 16:22 47.73962 18.74745 7198 ft 276 kts 145°
2026-05-06 16:23 47.72599 18.76834 7072 ft 279 kts 136°
2026-05-06 16:23 47.71313 18.78985 6959 ft 278 kts 136°
2026-05-06 16:23 47.70042 18.81091 6828 ft 276 kts 138°
2026-05-06 16:23 47.68718 18.83187 6706 ft 274 kts 137°
2026-05-06 16:24 47.67458 18.85227 6572 ft 272 kts 137°
2026-05-06 16:24 47.66175 18.87335 6451 ft 275 kts 137°
2026-05-06 16:24 47.64905 18.89423 6151 ft 272 kts 136°
2026-05-06 16:24 47.63636 18.91504 5794 ft 270 kts 137°
2026-05-06 16:25 47.62401 18.93529 5438 ft 258 kts 137°
2026-05-06 16:25 47.61235 18.95441 5124 ft 241 kts 137°
2026-05-06 16:25 47.60149 18.97218 4813 ft 227 kts 138°
2026-05-06 16:25 47.59111 18.98914 4546 ft 213 kts 137°
2026-05-06 16:26 47.58165 19.00460 4265 ft 191 kts 137°
2026-05-06 16:26 47.57347 19.01803 4015 ft 163 kts 139°
2026-05-06 16:26 47.56626 19.02977 3797 ft 148 kts 139°
2026-05-06 16:26 47.55937 19.04095 3608 ft 147 kts 141°
2026-05-06 16:27 47.55254 19.05204 3430 ft 145 kts 142°
2026-05-06 16:27 47.54573 19.06312 3240 ft 145 kts 140°
2026-05-06 16:27 47.53893 19.07419 3050 ft 145 kts 141°
2026-05-06 16:27 47.53215 19.08523 2862 ft 146 kts 141°
2026-05-06 16:28 47.52530 19.09635 2668 ft 147 kts 139°
2026-05-06 16:28 47.51842 19.10755 2481 ft 148 kts 139°
2026-05-06 16:28 47.51144 19.11891 2284 ft 147 kts 139°
2026-05-06 16:28 47.50462 19.13001 2087 ft 145 kts 137°
2026-05-06 16:29 47.49787 19.14097 1893 ft 145 kts 140°
2026-05-06 16:29 47.49113 19.15191 1711 ft 145 kts 139°
2026-05-06 16:29 47.48434 19.16294 1519 ft 145 kts 139°
2026-05-06 16:29 47.47749 19.17406 1323 ft 146 kts 141°
2026-05-06 16:30 47.47070 19.18509 1138 ft 143 kts 141°
2026-05-06 16:30 47.46629 19.19225 1007 ft 140 kts 140°
2026-05-06 16:30 47.45760 19.20633 767 ft 139 kts 138°
2026-05-06 16:30 47.45111 19.21681 582 ft 139 kts 139°
2026-05-06 16:31 47.44491 19.22689 452 ft 129 kts 137°
2026-05-06 16:31 47.43990 19.23494 455 ft 82 kts 132°
2026-05-06 16:31 47.43721 19.23933 453 ft 33 kts 132°
2026-05-06 16:31 47.43665 19.24025 453 ft 7 kts 132°
2026-05-06 16:32 47.43607 19.24120 453 ft 14 kts 132°
2026-05-06 16:32 47.43529 19.24248 451 ft 22 kts 132°
2026-05-06 16:32 47.43426 19.24414 452 ft 22 kts 133°
2026-05-06 16:32 47.43323 19.24576 453 ft 21 kts 134°
2026-05-06 16:33 47.43227 19.24735 456 ft 20 kts 131°
2026-05-06 16:33 47.43134 19.24886 455 ft 15 kts 132°
2026-05-06 16:33 47.43101 19.25030 457 ft 16 kts 77°
2026-05-06 16:34 47.43217 19.25218 457 ft 13 kts 42°
2026-05-06 16:34 47.43287 19.25311 455 ft 14 kts 42°
2026-05-06 16:34 47.43363 19.25412 456 ft 16 kts 42°
2026-05-06 16:34 47.43447 19.25526 456 ft 13 kts 43°
2026-05-06 16:35 47.43512 19.25613 457 ft 12 kts 42°
2026-05-06 16:35 47.43576 19.25699 456 ft 13 kts 42°
2026-05-06 16:35 47.43649 19.25795 457 ft 15 kts 42°
2026-05-06 16:35 47.43722 19.25896 457 ft 14 kts 51°
2026-05-06 16:36 47.43702 19.26024 457 ft 15 kts 131°
2026-05-06 16:36 47.43675 19.26172 457 ft 16 kts 84°
2026-05-06 16:36 47.43668 19.26339 458 ft 17 kts 111°
2026-05-06 16:36 47.43620 19.26423 458 ft 11 kts 133°
2026-05-06 16:37 47.43587 19.26475 458 ft 5 kts 139°
2026-05-06 16:37 47.43553 19.26457 458 ft 6 kts 217°
2026-05-06 16:37 47.43542 19.26442 458 ft 1 kts 222°
2026-05-06 16:37 47.43537 19.26435 458 ft 0 kts 222°